Time,TemperatureF,DewpointF,PressureIn,WindDirection,WindDirectionDegrees,WindSpeedMPH,WindSpeedGustMPH,Humidity,HourlyPrecipIn,Conditions,Clouds,dailyrainin,SoftwareType,DateUTC
2013-02-08 00:00:00,51.0,48.5,29.84,North,5,2.0,2.0,91,0.07,,,0.23,Wunderground v.1.15,2013-02-08 05:00:00,
2013-02-08 00:10:00,50.3,47.8,29.84,North,351,2.0,2.0,91,0.06,,,0.00,Wunderground v.1.15,2013-02-08 05:10:00,
2013-02-08 00:20:00,49.9,47.7,29.84,NNW,338,1.0,1.0,92,0.00,,,0.00,Wunderground v.1.15,2013-02-08 05:20:00,
2013-02-08 00:30:00,49.5,47.3,29.85,NNE,22,2.0,2.0,92,0.00,,,0.00,Wunderground v.1.15,2013-02-08 05:30:00,
2013-02-08 00:40:00,49.0,46.8,29.85,North,5,2.0,3.0,92,0.00,,,0.00,Wunderground v.1.15,2013-02-08 05:40:00,
2013-02-08 00:50:00,48.1,45.6,29.86,NW,310,4.0,4.0,91,0.00,,,0.00,Wunderground v.1.15,2013-02-08 05:50:00,
2013-02-08 01:00:00,47.1,44.9,29.87,NW,313,4.0,5.0,92,0.00,,,0.00,Wunderground v.1.15,2013-02-08 06:00:00,
2013-02-08 01:10:00,46.2,43.4,29.88,NNW,336,5.0,5.0,90,0.00,,,0.00,Wunderground v.1.15,2013-02-08 06:10:00,
2013-02-08 01:20:00,45.4,42.6,29.88,NE,41,4.0,4.0,90,0.00,,,0.00,Wunderground v.1.15,2013-02-08 06:20:00,
2013-02-08 01:30:00,44.9,41.9,29.88,NNW,333,4.0,4.0,89,0.00,,,0.00,Wunderground v.1.15,2013-02-08 06:30:00,
2013-02-08 01:40:00,44.4,41.4,29.89,North,355,4.0,4.0,89,0.00,,,0.00,Wunderground v.1.15,2013-02-08 06:40:00,
2013-02-08 01:50:00,44.1,41.1,29.89,NNW,345,3.0,5.0,89,0.00,,,0.00,Wunderground v.1.15,2013-02-08 06:50:00,
2013-02-08 02:00:00,43.6,40.6,29.90,NNW,333,3.0,3.0,89,0.00,,,0.00,Wunderground v.1.15,2013-02-08 07:00:00,
2013-02-08 02:10:00,42.9,39.9,29.90,North,355,4.0,5.0,89,0.00,,,0.00,Wunderground v.1.15,2013-02-08 07:10:00,
2013-02-08 02:20:00,42.1,39.4,29.90,NW,311,4.0,4.0,90,0.00,,,0.01,Wunderground v.1.15,2013-02-08 07:20:00,
2013-02-08 02:30:00,41.5,38.8,29.91,NNW,345,4.0,4.0,90,0.00,,,0.01,Wunderground v.1.15,2013-02-08 07:30:00,
2013-02-08 02:40:00,41.0,38.3,29.91,NNW,342,3.0,3.0,90,0.00,,,0.01,Wunderground v.1.15,2013-02-08 07:40:00,
2013-02-08 02:50:00,40.6,38.2,29.92,NNW,347,4.0,4.0,91,0.00,,,0.01,Wunderground v.1.15,2013-02-08 07:50:00,
2013-02-08 03:00:00,40.3,37.6,29.92,NNE,22,3.0,3.0,90,0.00,,,0.01,Wunderground v.1.15,2013-02-08 08:00:00,
2013-02-08 03:10:00,40.0,37.0,29.93,NNW,338,4.0,6.0,89,0.00,,,0.01,Wunderground v.1.15,2013-02-08 08:10:00,
2013-02-08 03:20:00,39.7,36.4,29.94,NNW,335,4.0,4.0,88,0.00,,,0.01,Wunderground v.1.15,2013-02-08 08:20:00,
2013-02-08 03:30:00,39.4,36.1,29.94,NNW,344,3.0,5.0,88,0.00,,,0.01,Wunderground v.1.15,2013-02-08 08:30:00,
2013-02-08 03:40:00,39.2,35.9,29.95,NW,310,3.0,4.0,88,0.00,,,0.01,Wunderground v.1.15,2013-02-08 08:40:00,
2013-02-08 03:50:00,39.0,36.0,29.94,NW,325,4.0,4.0,89,0.00,,,0.01,Wunderground v.1.15,2013-02-08 08:50:00,
2013-02-08 04:00:00,39.0,35.7,29.95,NW,316,3.0,4.0,88,0.00,,,0.01,Wunderground v.1.15,2013-02-08 09:00:00,
2013-02-08 04:10:00,38.9,35.6,29.95,NNE,17,4.0,4.0,88,0.00,,,0.01,Wunderground v.1.15,2013-02-08 09:10:00,
2013-02-08 04:20:00,38.9,35.6,29.95,NNW,330,3.0,3.0,88,0.00,,,0.01,Wunderground v.1.15,2013-02-08 09:20:00,
2013-02-08 04:30:00,38.8,35.3,29.96,NNW,341,3.0,4.0,87,0.00,,,0.01,Wunderground v.1.15,2013-02-08 09:30:00,
2013-02-08 04:40:00,38.6,35.1,29.97,NNW,339,3.0,3.0,87,0.00,,,0.01,Wunderground v.1.15,2013-02-08 09:40:00,
2013-02-08 04:50:00,38.5,35.3,29.97,NNW,335,2.0,2.0,88,0.00,,,0.01,Wunderground v.1.15,2013-02-08 09:50:00,
2013-02-08 05:00:00,38.2,34.7,29.98,NW,325,3.0,3.0,87,0.00,,,0.01,Wunderground v.1.15,2013-02-08 10:00:00,
2013-02-08 05:10:00,37.9,34.4,29.98,NNW,329,3.0,3.0,87,0.00,,,0.01,Wunderground v.1.15,2013-02-08 10:10:00,
2013-02-08 05:20:00,37.7,34.2,29.99,NNW,344,3.0,3.0,87,0.00,,,0.01,Wunderground v.1.15,2013-02-08 10:20:00,
2013-02-08 05:30:00,37.6,34.7,29.99,NW,326,2.0,2.0,89,0.00,,,0.01,Wunderground v.1.15,2013-02-08 10:30:00,
2013-02-08 05:40:00,37.5,34.3,30.00,NW,325,3.0,3.0,88,0.00,,,0.01,Wunderground v.1.15,2013-02-08 10:40:00,
2013-02-08 05:50:00,37.4,34.2,30.00,North,351,3.0,3.0,88,0.00,,,0.01,Wunderground v.1.15,2013-02-08 10:50:00,
2013-02-08 06:00:00,37.3,34.1,30.00,NNW,336,3.0,4.0,88,0.00,,,0.01,Wunderground v.1.15,2013-02-08 11:00:00,
2013-02-08 06:10:00,37.3,33.8,30.01,NNW,338,3.0,3.0,87,0.00,,,0.01,Wunderground v.1.15,2013-02-08 11:10:00,
2013-02-08 06:20:00,37.3,34.4,30.01,North,360,2.0,2.0,89,0.00,,,0.01,Wunderground v.1.15,2013-02-08 11:20:00,
2013-02-08 06:30:00,37.4,34.2,30.02,North,360,2.0,2.0,88,0.00,,,0.01,Wunderground v.1.15,2013-02-08 11:30:00,
2013-02-08 06:40:00,37.3,33.8,30.02,North,351,3.0,9.0,87,0.00,,,0.01,Wunderground v.1.15,2013-02-08 11:40:00,
2013-02-08 06:50:00,37.1,33.3,30.03,NNW,338,4.0,4.0,86,0.00,,,0.01,Wunderground v.1.15,2013-02-08 11:50:00,
2013-02-08 07:00:00,37.0,32.9,30.04,NW,322,4.0,4.0,85,0.00,,,0.01,Wunderground v.1.15,2013-02-08 12:00:00,
2013-02-08 07:10:00,36.8,32.7,30.04,North,355,4.0,4.0,85,0.00,,,0.01,Wunderground v.1.15,2013-02-08 12:10:00,
2013-02-08 07:20:00,36.6,32.2,30.05,North,5,5.0,5.0,84,0.00,,,0.01,Wunderground v.1.15,2013-02-08 12:20:00,
2013-02-08 07:30:00,36.5,32.1,30.05,NNW,347,5.0,5.0,84,0.00,,,0.01,Wunderground v.1.15,2013-02-08 12:30:00,
2013-02-08 07:40:00,36.4,32.0,30.06,NW,315,5.0,9.0,84,0.00,,,0.01,Wunderground v.1.15,2013-02-08 12:40:00,
2013-02-08 07:50:00,36.3,31.9,30.07,NNW,328,5.0,5.0,84,0.00,,,0.01,Wunderground v.1.15,2013-02-08 12:50:00,
2013-02-08 08:00:00,36.2,32.1,30.07,NW,315,3.0,9.0,85,0.00,,,0.01,Wunderground v.1.15,2013-02-08 13:00:00,
2013-02-08 08:10:00,36.2,32.1,30.08,NNW,342,4.0,4.0,85,0.00,,,0.01,Wunderground v.1.15,2013-02-08 13:10:00,
2013-02-08 08:20:00,36.2,32.1,30.09,NNW,342,4.0,4.0,85,0.00,,,0.01,Wunderground v.1.15,2013-02-08 13:20:00,
2013-02-08 08:30:00,36.2,32.1,30.10,NE,40,3.0,3.0,85,0.00,,,0.01,Wunderground v.1.15,2013-02-08 13:30:00,
2013-02-08 08:40:00,36.1,32.0,30.11,NNE,30,3.0,9.0,85,0.00,,,0.01,Wunderground v.1.15,2013-02-08 13:40:00,
2013-02-08 09:10:00,36.1,32.0,30.12,North,349,2.0,2.0,85,0.00,,,0.01,Wunderground v.1.15,2013-02-08 14:10:00,
2013-02-08 09:20:00,35.9,31.5,30.13,NNW,340,3.0,3.0,84,0.00,,,0.01,Wunderground v.1.15,2013-02-08 14:20:00,
2013-02-08 09:30:00,35.8,31.4,30.13,North,5,4.0,4.0,84,0.00,,,0.01,Wunderground v.1.15,2013-02-08 14:30:00,
2013-02-08 09:40:00,35.8,31.4,30.13,NNE,13,3.0,3.0,84,0.00,,,0.01,Wunderground v.1.15,2013-02-08 14:40:00,
2013-02-08 09:50:00,35.7,31.3,30.14,NE,46,4.0,4.0,84,0.00,,,0.01,Wunderground v.1.15,2013-02-08 14:50:00,
2013-02-08 10:00:00,35.7,31.0,30.15,NW,311,4.0,4.0,83,0.00,,,0.01,Wunderground v.1.15,2013-02-08 15:00:00,
2013-02-08 10:10:00,35.7,31.0,30.16,NNW,347,4.0,4.0,83,0.00,,,0.01,Wunderground v.1.15,2013-02-08 15:10:00,
2013-02-08 10:20:00,35.7,31.0,30.16,North,360,3.0,3.0,83,0.00,,,0.01,Wunderground v.1.15,2013-02-08 15:20:00,
2013-02-08 10:30:00,35.7,31.0,30.16,NE,39,3.0,4.0,83,0.00,,,0.01,Wunderground v.1.15,2013-02-08 15:30:00,
2013-02-08 10:40:00,35.9,30.9,30.17,North,350,4.0,5.0,82,0.00,,,0.01,Wunderground v.1.15,2013-02-08 15:40:00,
2013-02-08 10:50:00,35.9,31.2,30.17,NW,311,3.0,3.0,83,0.00,,,0.01,Wunderground v.1.15,2013-02-08 15:50:00,
2013-02-08 11:00:00,36.0,31.3,30.18,North,350,3.0,4.0,83,0.00,,,0.01,Wunderground v.1.15,2013-02-08 16:00:00,
2013-02-08 11:10:00,36.0,30.7,30.18,North,5,3.0,3.0,81,0.00,,,0.01,Wunderground v.1.15,2013-02-08 16:10:00,
2013-02-08 11:20:00,36.1,31.1,30.19,NNW,332,3.0,4.0,82,0.00,,,0.01,Wunderground v.1.15,2013-02-08 16:20:00,
2013-02-08 11:30:00,35.9,30.6,30.19,NNW,346,4.0,4.0,81,0.00,,,0.01,Wunderground v.1.15,2013-02-08 16:30:00,
2013-02-08 11:39:00,35.7,30.7,30.20,NNE,16,4.0,4.0,82,0.00,,,0.01,Wunderground v.1.15,2013-02-08 16:39:00,
2013-02-08 11:50:00,35.5,30.2,30.21,NW,319,4.0,4.0,81,0.00,,,0.01,Wunderground v.1.15,2013-02-08 16:50:00,
2013-02-08 12:00:00,35.5,30.5,30.20,NW,308,4.0,4.0,82,0.00,,,0.01,Wunderground v.1.15,2013-02-08 17:00:00,
2013-02-08 12:10:00,35.5,30.5,30.20,North,355,4.0,6.0,82,0.00,,,0.01,Wunderground v.1.15,2013-02-08 17:10:00,
2013-02-08 12:20:00,35.6,30.6,30.20,NNE,24,4.0,4.0,82,0.00,,,0.01,Wunderground v.1.15,2013-02-08 17:20:00,
2013-02-08 12:30:00,35.6,29.7,30.20,NNW,331,5.0,5.0,79,0.00,,,0.01,Wunderground v.1.15,2013-02-08 17:30:00,
2013-02-08 12:40:00,35.4,29.8,30.21,NW,323,5.0,9.0,80,0.00,,,0.01,Wunderground v.1.15,2013-02-08 17:40:00,
2013-02-08 12:50:00,35.5,29.9,30.21,NNE,23,5.0,5.0,80,0.00,,,0.01,Wunderground v.1.15,2013-02-08 17:50:00,
2013-02-08 13:00:00,35.5,29.6,30.21,NW,325,4.0,4.0,79,0.00,,,0.01,Wunderground v.1.15,2013-02-08 18:00:00,
2013-02-08 13:10:00,35.5,29.3,30.21,NW,323,5.0,8.0,78,0.00,,,0.01,Wunderground v.1.15,2013-02-08 18:10:00,
2013-02-08 13:20:00,35.6,29.4,30.21,NNE,30,4.0,4.0,78,0.00,,,0.01,Wunderground v.1.15,2013-02-08 18:20:00,
2013-02-08 13:30:00,35.7,29.8,30.21,North,355,3.0,3.0,79,0.00,,,0.01,Wunderground v.1.15,2013-02-08 18:30:00,
2013-02-08 13:40:00,35.6,29.7,30.22,North,360,4.0,4.0,79,0.00,,,0.01,Wunderground v.1.15,2013-02-08 18:40:00,
2013-02-08 13:50:00,36.0,30.1,30.22,NNE,22,3.0,4.0,79,0.00,,,0.01,Wunderground v.1.15,2013-02-08 18:50:00,
2013-02-08 14:00:00,35.8,29.6,30.22,ENE,62,4.0,4.0,78,0.00,,,0.01,Wunderground v.1.15,2013-02-08 19:00:00,
2013-02-08 14:10:00,36.0,29.8,30.22,NNW,346,2.0,6.0,78,0.00,,,0.01,Wunderground v.1.15,2013-02-08 19:10:00,
2013-02-08 14:20:00,35.9,30.0,30.23,North,10,4.0,4.0,79,0.00,,,0.01,Wunderground v.1.15,2013-02-08 19:20:00,
2013-02-08 14:30:00,35.6,29.4,30.22,NNW,338,4.0,5.0,78,0.00,,,0.01,Wunderground v.1.15,2013-02-08 19:30:00,
2013-02-08 14:40:00,35.8,29.9,30.23,North,351,3.0,4.0,79,0.00,,,0.01,Wunderground v.1.15,2013-02-08 19:40:00,
2013-02-08 14:50:00,35.6,29.4,30.23,NNE,15,4.0,5.0,78,0.00,,,0.01,Wunderground v.1.15,2013-02-08 19:50:00,
2013-02-08 15:00:00,35.6,29.4,30.23,NE,38,3.0,3.0,78,0.00,,,0.01,Wunderground v.1.15,2013-02-08 20:00:00,
2013-02-08 15:10:00,35.5,29.3,30.24,North,360,3.0,7.0,78,0.00,,,0.01,Wunderground v.1.15,2013-02-08 20:10:00,
2013-02-08 15:20:00,35.6,29.7,30.24,North,360,3.0,3.0,79,0.00,,,0.01,Wunderground v.1.15,2013-02-08 20:20:00,
2013-02-08 15:30:00,35.2,30.0,30.25,North,355,3.0,3.0,81,0.00,,,0.01,Wunderground v.1.15,2013-02-08 20:30:00,
2013-02-08 15:40:00,35.1,29.6,30.25,NNE,16,3.0,10.0,80,0.00,,,0.01,Wunderground v.1.15,2013-02-08 20:40:00,
2013-02-08 15:50:00,35.0,29.5,30.26,NW,318,3.0,3.0,80,0.00,,,0.01,Wunderground v.1.15,2013-02-08 20:50:00,
2013-02-08 16:00:00,35.1,29.6,30.26,North,355,3.0,3.0,80,0.00,,,0.01,Wunderground v.1.15,2013-02-08 21:00:00,
2013-02-08 16:10:00,35.2,29.6,30.26,NNW,329,2.0,5.0,80,0.00,,,0.01,Wunderground v.1.15,2013-02-08 21:10:00,
2013-02-08 16:20:00,35.1,29.2,30.27,North,11,3.0,3.0,79,0.00,,,0.01,Wunderground v.1.15,2013-02-08 21:20:00,
2013-02-08 16:30:00,35.1,29.6,30.27,North,360,2.0,3.0,80,0.00,,,0.01,Wunderground v.1.15,2013-02-08 21:30:00,
2013-02-08 16:40:00,35.3,30.1,30.27,NNW,340,2.0,2.0,81,0.00,,,0.01,Wunderground v.1.15,2013-02-08 21:40:00,
2013-02-08 16:50:00,35.2,29.3,30.27,NNW,336,2.0,2.0,79,0.00,,,0.01,Wunderground v.1.15,2013-02-08 21:50:00,
2013-02-08 17:00:00,35.3,29.7,30.28,NNW,345,1.0,2.0,80,0.00,,,0.01,Wunderground v.1.15,2013-02-08 22:00:00,
2013-02-08 17:10:00,35.3,29.7,30.28,North,360,2.0,3.0,80,0.00,,,0.01,Wunderground v.1.15,2013-02-08 22:10:00,
2013-02-08 17:20:00,35.2,29.6,30.28,NNW,342,3.0,3.0,80,0.00,,,0.01,Wunderground v.1.15,2013-02-08 22:20:00,
2013-02-08 17:30:00,35.2,29.3,30.29,NNW,346,2.0,2.0,79,0.00,,,0.01,Wunderground v.1.15,2013-02-08 22:30:00,
2013-02-08 17:40:00,35.2,29.6,30.30,NNW,347,2.0,2.0,80,0.00,,,0.01,Wunderground v.1.15,2013-02-08 22:40:00,
2013-02-08 17:50:00,35.3,29.7,30.30,North,5,2.0,2.0,80,0.00,,,0.01,Wunderground v.1.15,2013-02-08 22:50:00,
2013-02-08 18:00:00,35.3,29.4,30.31,NNW,338,2.0,3.0,79,0.00,,,0.01,Wunderground v.1.15,2013-02-08 23:00:00,
2013-02-08 18:10:00,35.3,29.4,30.31,NW,304,2.0,5.0,79,0.00,,,0.01,Wunderground v.1.15,2013-02-08 23:10:00,
2013-02-08 18:20:00,35.2,29.3,30.31,NNW,336,2.0,2.0,79,0.00,,,0.01,Wunderground v.1.15,2013-02-08 23:20:00,
2013-02-08 18:30:00,35.3,29.7,30.31,NW,322,1.0,1.0,80,0.00,,,0.01,Wunderground v.1.15,2013-02-08 23:30:00,
2013-02-08 18:40:00,35.3,29.4,30.31,North,355,2.0,2.0,79,0.00,,,0.01,Wunderground v.1.15,2013-02-08 23:40:00,
2013-02-08 18:50:00,35.3,29.1,30.32,NNE,18,3.0,3.0,78,0.00,,,0.01,Wunderground v.1.15,2013-02-08 23:50:00,
2013-02-08 19:00:00,35.4,29.2,30.32,North,11,2.0,2.0,78,0.00,,,0.01,Wunderground v.1.15,2013-02-09 00:00:00,
2013-02-08 19:10:00,35.4,28.9,30.33,North,355,2.0,2.0,77,0.00,,,0.01,Wunderground v.1.15,2013-02-09 00:10:00,
2013-02-08 19:20:00,35.5,29.0,30.33,North,360,1.0,2.0,77,0.00,,,0.01,Wunderground v.1.15,2013-02-09 00:20:00,
2013-02-08 19:30:00,35.6,29.1,30.33,NNE,22,2.0,2.0,77,0.00,,,0.01,Wunderground v.1.15,2013-02-09 00:30:00,
2013-02-08 19:40:00,35.4,28.6,30.34,North,355,3.0,4.0,76,0.00,,,0.01,Wunderground v.1.15,2013-02-09 00:40:00,
2013-02-08 19:50:00,35.4,28.6,30.34,NW,319,3.0,5.0,76,0.00,,,0.01,Wunderground v.1.15,2013-02-09 00:50:00,
2013-02-08 20:00:00,35.4,28.9,30.34,NNW,338,2.0,2.0,77,0.00,,,0.01,Wunderground v.1.15,2013-02-09 01:00:00,
2013-02-08 20:10:00,35.4,28.9,30.35,NNW,332,2.0,4.0,77,0.00,,,0.01,Wunderground v.1.15,2013-02-09 01:10:00,
2013-02-08 20:20:00,35.4,28.9,30.35,NW,323,1.0,1.0,77,0.00,,,0.01,Wunderground v.1.15,2013-02-09 01:20:00,
2013-02-08 20:30:00,35.5,28.7,30.35,NNW,340,1.0,1.0,76,0.00,,,0.01,Wunderground v.1.15,2013-02-09 01:30:00,
2013-02-08 20:40:00,35.5,28.7,30.35,NNW,336,2.0,2.0,76,0.00,,,0.01,Wunderground v.1.15,2013-02-09 01:40:00,
2013-02-08 20:50:00,35.4,28.3,30.35,North,355,2.0,2.0,75,0.00,,,0.01,Wunderground v.1.15,2013-02-09 01:50:00,
2013-02-08 21:00:00,35.3,28.2,30.35,NNW,329,3.0,5.0,75,0.00,,,0.01,Wunderground v.1.15,2013-02-09 02:00:00,
2013-02-08 21:09:00,35.2,28.1,30.34,NNE,15,3.0,3.0,75,0.00,,,0.01,Wunderground v.1.15,2013-02-09 02:09:00,
2013-02-08 21:20:00,35.0,27.9,30.34,ENE,74,3.0,3.0,75,0.00,,,0.01,Wunderground v.1.15,2013-02-09 02:20:00,
2013-02-08 21:30:00,35.0,28.2,30.34,North,355,2.0,2.0,76,0.00,,,0.01,Wunderground v.1.15,2013-02-09 02:30:00,
2013-02-08 21:40:00,35.2,28.7,30.34,NE,54,1.0,2.0,77,0.00,,,0.01,Wunderground v.1.15,2013-02-09 02:40:00,
2013-02-08 21:50:00,35.0,28.2,30.34,NNE,24,2.0,2.0,76,0.00,,,0.01,Wunderground v.1.15,2013-02-09 02:50:00,
2013-02-08 22:00:00,35.0,27.9,30.34,NNE,17,2.0,2.0,75,0.00,,,0.01,Wunderground v.1.15,2013-02-09 03:00:00,
2013-02-08 22:10:00,35.2,28.4,30.35,NNE,17,0.0,2.0,76,0.00,,,0.01,Wunderground v.1.15,2013-02-09 03:10:00,
2013-02-08 22:20:00,35.4,28.9,30.35,NNE,18,1.0,1.0,77,0.00,,,0.01,Wunderground v.1.15,2013-02-09 03:20:00,
2013-02-08 22:30:00,35.4,28.3,30.35,NNE,30,1.0,1.0,75,0.00,,,0.01,Wunderground v.1.15,2013-02-09 03:30:00,
2013-02-08 22:40:00,35.3,28.5,30.35,NE,56,1.0,1.0,76,0.00,,,0.01,Wunderground v.1.15,2013-02-09 03:40:00,
2013-02-08 22:50:00,35.2,28.4,30.36,NNE,13,2.0,2.0,76,0.00,,,0.01,Wunderground v.1.15,2013-02-09 03:50:00,
2013-02-08 23:00:00,34.8,27.7,30.36,NNE,15,2.0,2.0,75,0.00,,,0.01,Wunderground v.1.15,2013-02-09 04:00:00,
2013-02-08 23:10:00,34.8,28.0,30.36,NNE,15,2.0,2.0,76,0.00,,,0.01,Wunderground v.1.15,2013-02-09 04:10:00,
2013-02-08 23:20:00,34.9,28.1,30.37,NW,325,1.0,2.0,76,0.00,,,0.01,Wunderground v.1.15,2013-02-09 04:20:00,
2013-02-08 23:30:00,34.9,27.5,30.37,NNE,29,1.0,1.0,74,0.00,,,0.01,Wunderground v.1.15,2013-02-09 04:30:00,
2013-02-08 23:40:00,35.0,27.9,30.37,NNE,29,0.0,0.0,75,0.00,,,0.01,Wunderground v.1.15,2013-02-09 04:40:00,
2013-02-08 23:50:00,35.1,27.3,30.37,NNE,16,1.0,2.0,73,0.00,,,0.01,Wunderground v.1.15,2013-02-09 04:50:00,